GLG1632 SEGU-SEGS

Flight info

Callsign GLG1632
Flight time 1h 50m
Altitude 34000
Route ASOSI3A ASOSI UW17 SCV
Aircraft A320/M-SDE3FGHIRWY/LB1

Departure

Time 2026-04-29 11:00
Airport José Joaquín de Olmedo International Airport (SEGU)

Arrival

Time 2026-04-29 12:50
Airport Seymour Galapagos Ecological Airport (SEGS)
Time Latitude Longitude Altitude Speed Heading
2026-04-29 10:31 -2.14939 -79.88389 29 ft 0 kts 272°
2026-04-29 10:49 -2.14941 -79.88370 29 ft 3 kts 289°
2026-04-29 10:49 -2.14951 -79.88350 29 ft 3 kts 303°
2026-04-29 10:50 -2.14962 -79.88334 29 ft 3 kts 298°
2026-04-29 10:50 -2.14968 -79.88315 29 ft 3 kts 255°
2026-04-29 10:50 -2.14957 -79.88297 29 ft 3 kts 216°
2026-04-29 10:50 -2.14950 -79.88292 29 ft 0 kts 210°
2026-04-29 10:52 -2.14971 -79.88304 29 ft 10 kts 210°
2026-04-29 10:52 -2.15039 -79.88343 29 ft 0 kts 210°
2026-04-29 10:53 -2.15044 -79.88346 29 ft 5 kts 209°
2026-04-29 10:54 -2.15098 -79.88377 29 ft 11 kts 210°
2026-04-29 10:54 -2.15169 -79.88383 29 ft 12 kts 138°
2026-04-29 10:54 -2.15210 -79.88318 29 ft 10 kts 120°
2026-04-29 10:54 -2.15216 -79.88257 28 ft 9 kts 55°
2026-04-29 10:55 -2.15149 -79.88214 29 ft 18 kts 29°
2026-04-29 10:55 -2.15040 -79.88151 29 ft 17 kts 30°
2026-04-29 10:55 -2.14941 -79.88094 29 ft 16 kts 30°
2026-04-29 10:55 -2.14853 -79.88043 29 ft 14 kts 30°
2026-04-29 10:56 -2.14773 -79.87997 29 ft 14 kts 30°
2026-04-29 10:56 -2.14684 -79.87945 29 ft 14 kts 34°
2026-04-29 10:56 -2.14647 -79.87876 28 ft 5 kts 74°
2026-04-29 10:56 -2.14647 -79.87875 28 ft 0 kts 74°
2026-04-29 10:57 -2.14633 -79.87825 28 ft 11 kts 75°
2026-04-29 10:57 -2.14650 -79.87762 28 ft 9 kts 133°
2026-04-29 10:57 -2.14700 -79.87764 27 ft 0 kts 209°
2026-04-29 10:59 -2.14790 -79.87817 27 ft 49 kts 210°
2026-04-29 10:59 -2.15289 -79.88105 28 ft 114 kts 210°
2026-04-29 10:59 -2.16136 -79.88593 47 ft 162 kts 211°
2026-04-29 11:00 -2.17138 -79.89165 591 ft 167 kts 210°
2026-04-29 11:00 -2.18159 -79.89739 1234 ft 169 kts 210°
2026-04-29 11:00 -2.19207 -79.90319 1823 ft 177 kts 210°
2026-04-29 11:00 -2.20278 -79.90977 2317 ft 188 kts 222°
2026-04-29 11:01 -2.20981 -79.92114 2714 ft 203 kts 257°
2026-04-29 11:01 -2.21030 -79.93557 3072 ft 223 kts 272°
2026-04-29 11:01 -2.20957 -79.95193 3446 ft 247 kts 272°
2026-04-29 11:01 -2.20883 -79.96984 3939 ft 266 kts 272°
2026-04-29 11:02 -2.20805 -79.98860 4731 ft 273 kts 272°
2026-04-29 11:02 -2.20725 -80.00770 5549 ft 277 kts 272°
2026-04-29 11:02 -2.20641 -80.02714 6356 ft 282 kts 273°
2026-04-29 11:02 -2.20554 -80.04689 7101 ft 286 kts 273°
2026-04-29 11:03 -2.20465 -80.06693 7874 ft 290 kts 273°
2026-04-29 11:03 -2.20375 -80.08720 8646 ft 294 kts 273°
2026-04-29 11:03 -2.20286 -80.10773 9414 ft 298 kts 272°
2026-04-29 11:03 -2.20197 -80.12859 10058 ft 306 kts 272°
2026-04-29 11:04 -2.20105 -80.15062 10255 ft 329 kts 272°
2026-04-29 11:04 -2.20005 -80.17435 10409 ft 352 kts 272°
2026-04-29 11:04 -2.19895 -80.19945 10690 ft 368 kts 273°
2026-04-29 11:04 -2.19779 -80.22493 11228 ft 374 kts 273°
2026-04-29 11:05 -2.19661 -80.25105 11830 ft 378 kts 273°
2026-04-29 11:05 -2.19543 -80.27750 12438 ft 382 kts 272°
2026-04-29 11:05 -2.19428 -80.30419 13032 ft 386 kts 272°
2026-04-29 11:05 -2.19312 -80.33111 13622 ft 390 kts 272°
2026-04-29 11:06 -2.19195 -80.35831 14137 ft 393 kts 272°
2026-04-29 11:06 -2.19077 -80.38572 14646 ft 397 kts 272°
2026-04-29 11:06 -2.18957 -80.41340 15153 ft 400 kts 272°
2026-04-29 11:06 -2.18835 -80.44129 15659 ft 403 kts 273°
2026-04-29 11:07 -2.18713 -80.46938 16163 ft 406 kts 273°
2026-04-29 11:07 -2.18589 -80.49771 16663 ft 410 kts 273°
2026-04-29 11:07 -2.18477 -80.52635 17157 ft 413 kts 270°
2026-04-29 11:07 -2.18641 -80.55514 17646 ft 417 kts 265°
2026-04-29 11:08 -2.18885 -80.58411 18144 ft 420 kts 265°
2026-04-29 11:08 -2.19136 -80.61331 18580 ft 423 kts 265°
2026-04-29 11:08 -2.19390 -80.64268 19023 ft 425 kts 265°
2026-04-29 11:08 -2.19643 -80.67228 19458 ft 428 kts 265°
2026-04-29 11:09 -2.19895 -80.70196 19885 ft 431 kts 265°
2026-04-29 11:09 -2.20148 -80.73194 20307 ft 433 kts 265°
2026-04-29 11:09 -2.20400 -80.76202 20726 ft 436 kts 265°
2026-04-29 11:09 -2.20653 -80.79228 21122 ft 438 kts 265°
2026-04-29 11:10 -2.20912 -80.82272 21505 ft 441 kts 265°
2026-04-29 11:10 -2.21086 -80.84296 21763 ft 442 kts 265°
2026-04-29 11:10 -2.21345 -80.87371 22157 ft 444 kts 265°
2026-04-29 11:10 -2.21604 -80.90456 22519 ft 447 kts 265°
2026-04-29 11:11 -2.21866 -80.93560 22854 ft 450 kts 264°
2026-04-29 11:11 -2.22005 -80.96691 23198 ft 453 kts 271°
2026-04-29 11:11 -2.21470 -81.00832 23655 ft 455 kts 280°
2026-04-29 11:11 -2.20868 -81.03947 23911 ft 457 kts 280°
2026-04-29 11:12 -2.20465 -81.06056 24105 ft 458 kts 280°
2026-04-29 11:12 -2.19869 -81.09200 24347 ft 461 kts 280°
2026-04-29 11:12 -2.19274 -81.12346 24646 ft 461 kts 280°
2026-04-29 11:12 -2.18678 -81.15506 24923 ft 462 kts 280°
2026-04-29 11:13 -2.18089 -81.18629 25187 ft 463 kts 280°
2026-04-29 11:13 -2.17485 -81.21802 25439 ft 465 kts 280°
2026-04-29 11:13 -2.16881 -81.24985 25695 ft 466 kts 280°
2026-04-29 11:13 -2.16279 -81.28179 25931 ft 468 kts 280°
2026-04-29 11:14 -2.15679 -81.31378 26190 ft 469 kts 279°
2026-04-29 11:14 -2.15078 -81.34581 26461 ft 469 kts 280°
2026-04-29 11:14 -2.14471 -81.37790 26697 ft 470 kts 279°
2026-04-29 11:14 -2.13860 -81.41003 26934 ft 471 kts 280°
2026-04-29 11:15 -2.13247 -81.44229 27150 ft 473 kts 279°
2026-04-29 11:15 -2.12632 -81.47459 27367 ft 474 kts 280°
2026-04-29 11:15 -2.12015 -81.50703 27577 ft 475 kts 280°
2026-04-29 11:15 -2.11402 -81.53954 27783 ft 476 kts 280°
2026-04-29 11:16 -2.10787 -81.57211 27979 ft 477 kts 280°
2026-04-29 11:16 -2.10170 -81.60472 28177 ft 478 kts 279°
2026-04-29 11:16 -2.09549 -81.63752 28364 ft 479 kts 280°
2026-04-29 11:16 -2.08927 -81.67029 28557 ft 480 kts 279°
2026-04-29 11:17 -2.08304 -81.70305 28826 ft 478 kts 279°
2026-04-29 11:17 -2.07682 -81.73565 29097 ft 477 kts 279°
2026-04-29 11:17 -2.07063 -81.76821 29363 ft 476 kts 278°
2026-04-29 11:17 -2.06447 -81.80068 29640 ft 475 kts 279°
2026-04-29 11:18 -2.05833 -81.83310 29891 ft 474 kts 279°
2026-04-29 11:18 -2.05219 -81.86546 30123 ft 474 kts 279°
2026-04-29 11:18 -2.04658 -81.89791 30341 ft 473 kts 277°
2026-04-29 11:18 -2.04187 -81.93039 30562 ft 472 kts 275°
2026-04-29 11:19 -2.03781 -81.96246 30785 ft 471 kts 275°
2026-04-29 11:19 -2.03393 -81.99496 31012 ft 470 kts 274°
2026-04-29 11:19 -2.03003 -82.02742 31242 ft 470 kts 274°
2026-04-29 11:19 -2.02596 -82.05978 31477 ft 469 kts 275°
2026-04-29 11:20 -2.02172 -82.09215 31716 ft 469 kts 275°
2026-04-29 11:20 -2.01738 -82.12441 31968 ft 468 kts 275°
2026-04-29 11:20 -2.01300 -82.15663 32224 ft 467 kts 274°
2026-04-29 11:20 -2.00859 -82.18876 32475 ft 466 kts 274°
2026-04-29 11:21 -2.00420 -82.22087 32731 ft 466 kts 274°
2026-04-29 11:21 -1.99985 -82.25291 32988 ft 465 kts 274°
2026-04-29 11:21 -1.99553 -82.28492 33252 ft 464 kts 273°
2026-04-29 11:21 -1.99125 -82.31686 33517 ft 463 kts 273°
2026-04-29 11:22 -1.98697 -82.34872 33765 ft 463 kts 273°
2026-04-29 11:22 -1.98271 -82.38066 33883 ft 463 kts 272°
2026-04-29 11:22 -1.97848 -82.41263 33896 ft 465 kts 272°
2026-04-29 11:23 -1.96990 -82.47660 33901 ft 464 kts 272°
2026-04-29 11:23 -1.96135 -82.54008 33902 ft 464 kts 272°
2026-04-29 11:24 -1.95267 -82.60398 33904 ft 464 kts 272°
2026-04-29 11:24 -1.94408 -82.66781 33905 ft 464 kts 271°
2026-04-29 11:25 -1.93559 -82.73180 33909 ft 464 kts 271°
2026-04-29 11:25 -1.92709 -82.79571 33914 ft 464 kts 271°
2026-04-29 11:26 -1.91439 -82.89173 33898 ft 465 kts 272°
2026-04-29 11:26 -1.90586 -82.95585 33897 ft 465 kts 272°
2026-04-29 11:27 -1.89722 -83.02000 33899 ft 466 kts 272°
2026-04-29 11:27 -1.88856 -83.08430 33903 ft 466 kts 272°
2026-04-29 11:28 -1.87994 -83.14864 33902 ft 466 kts 272°
2026-04-29 11:28 -1.87133 -83.21286 33900 ft 467 kts 272°
2026-04-29 11:29 -1.86278 -83.27679 33904 ft 467 kts 272°
2026-04-29 11:29 -1.85416 -83.34114 33902 ft 467 kts 272°
2026-04-29 11:30 -1.84555 -83.40556 33899 ft 467 kts 272°
2026-04-29 11:30 -1.83692 -83.46998 33900 ft 467 kts 272°
2026-04-29 11:31 -1.82824 -83.53440 33904 ft 468 kts 272°
2026-04-29 11:31 -1.81954 -83.59896 33905 ft 468 kts 272°
2026-04-29 11:32 -1.81097 -83.66321 33906 ft 469 kts 272°
2026-04-29 11:32 -1.80230 -83.72772 33912 ft 469 kts 272°
2026-04-29 11:33 -1.79363 -83.79229 33914 ft 468 kts 272°
2026-04-29 11:33 -1.78499 -83.85689 33913 ft 469 kts 272°
2026-04-29 11:34 -1.77637 -83.92136 33909 ft 468 kts 272°
2026-04-29 11:34 -1.76768 -83.98589 33915 ft 468 kts 272°
2026-04-29 11:35 -1.75892 -84.05028 33918 ft 467 kts 272°
2026-04-29 11:35 -1.75028 -84.11463 33913 ft 467 kts 272°
2026-04-29 11:36 -1.74181 -84.17858 33907 ft 467 kts 272°
2026-04-29 11:36 -1.73318 -84.24292 33909 ft 467 kts 272°
2026-04-29 11:37 -1.72449 -84.30728 33909 ft 467 kts 272°
2026-04-29 11:37 -1.71592 -84.37160 33908 ft 467 kts 272°
2026-04-29 11:38 -1.70726 -84.43594 33911 ft 467 kts 272°
2026-04-29 11:38 -1.69859 -84.50028 33913 ft 467 kts 272°
2026-04-29 11:39 -1.69001 -84.56463 33907 ft 467 kts 272°
2026-04-29 11:39 -1.68131 -84.62894 33910 ft 467 kts 272°
2026-04-29 11:40 -1.67264 -84.69325 33912 ft 467 kts 273°
2026-04-29 11:40 -1.66399 -84.75757 33910 ft 467 kts 273°
2026-04-29 11:41 -1.65545 -84.82142 33913 ft 466 kts 273°
2026-04-29 11:41 -1.64683 -84.88578 33913 ft 466 kts 273°
2026-04-29 11:42 -1.63815 -84.95001 33914 ft 466 kts 273°
2026-04-29 11:42 -1.62951 -85.01414 33915 ft 466 kts 273°
2026-04-29 11:43 -1.62083 -85.07830 33916 ft 465 kts 274°
2026-04-29 11:43 -1.61222 -85.14243 33919 ft 465 kts 274°
2026-04-29 11:44 -1.60368 -85.20601 33918 ft 464 kts 274°
2026-04-29 11:44 -1.59514 -85.27007 33917 ft 464 kts 274°
2026-04-29 11:45 -1.58658 -85.33398 33913 ft 464 kts 274°
2026-04-29 11:45 -1.57805 -85.39787 33911 ft 464 kts 274°
2026-04-29 11:46 -1.56954 -85.46174 33910 ft 463 kts 274°
2026-04-29 11:46 -1.56099 -85.52561 33912 ft 463 kts 274°
2026-04-29 11:47 -1.55239 -85.58938 33906 ft 463 kts 274°
2026-04-29 11:47 -1.54383 -85.65279 33907 ft 463 kts 274°
2026-04-29 11:48 -1.53528 -85.71655 33906 ft 463 kts 274°
2026-04-29 11:48 -1.52677 -85.78027 33902 ft 463 kts 274°
2026-04-29 11:49 -1.51832 -85.84401 33900 ft 462 kts 274°
2026-04-29 11:49 -1.50982 -85.90774 33891 ft 462 kts 274°
2026-04-29 11:50 -1.50127 -85.97145 33889 ft 462 kts 274°
2026-04-29 11:50 -1.49268 -86.03518 33890 ft 463 kts 274°
2026-04-29 11:51 -1.48405 -86.09892 33895 ft 463 kts 274°
2026-04-29 11:51 -1.47549 -86.16274 33896 ft 463 kts 274°
2026-04-29 11:52 -1.46695 -86.22655 33901 ft 463 kts 275°
2026-04-29 11:52 -1.45841 -86.29024 33902 ft 462 kts 275°
2026-04-29 11:53 -1.44977 -86.35384 33901 ft 462 kts 275°
2026-04-29 11:53 -1.44126 -86.41714 33896 ft 462 kts 274°
2026-04-29 11:54 -1.43284 -86.48072 33896 ft 461 kts 274°
2026-04-29 11:54 -1.42439 -86.54432 33893 ft 462 kts 275°
2026-04-29 11:55 -1.41582 -86.60793 33903 ft 461 kts 275°
2026-04-29 11:55 -1.40728 -86.67138 33910 ft 460 kts 275°
2026-04-29 11:56 -1.39880 -86.73479 33908 ft 460 kts 275°
2026-04-29 11:56 -1.39041 -86.79816 33906 ft 460 kts 275°
2026-04-29 11:57 -1.38191 -86.86155 33908 ft 459 kts 275°
2026-04-29 11:57 -1.37339 -86.92476 33907 ft 459 kts 275°
2026-04-29 11:58 -1.36499 -86.98801 33908 ft 459 kts 275°
2026-04-29 11:58 -1.35795 -87.04051 33907 ft 458 kts 275°
2026-04-29 11:59 -1.34938 -87.10355 33902 ft 458 kts 275°
2026-04-29 11:59 -1.34091 -87.16653 33904 ft 457 kts 275°
2026-04-29 12:00 -1.33251 -87.22958 33904 ft 457 kts 275°
2026-04-29 12:00 -1.32409 -87.29250 33904 ft 457 kts 275°
2026-04-29 12:01 -1.31423 -87.36566 33904 ft 456 kts 275°
2026-04-29 12:01 -1.30717 -87.41830 33908 ft 455 kts 275°
2026-04-29 12:02 -1.29880 -87.48056 33907 ft 455 kts 275°
2026-04-29 12:02 -1.29039 -87.54323 33906 ft 454 kts 275°
2026-04-29 12:03 -1.28202 -87.60583 33903 ft 454 kts 275°
2026-04-29 12:03 -1.27359 -87.66837 33904 ft 454 kts 275°
2026-04-29 12:04 -1.26518 -87.73089 33902 ft 454 kts 275°
2026-04-29 12:04 -1.25683 -87.79329 33907 ft 453 kts 275°
2026-04-29 12:05 -1.24844 -87.85561 33908 ft 452 kts 275°
2026-04-29 12:05 -1.23914 -87.91775 33906 ft 452 kts 278°
2026-04-29 12:06 -1.22691 -87.97950 33901 ft 453 kts 279°
2026-04-29 12:06 -1.21394 -88.04101 33898 ft 452 kts 279°
2026-04-29 12:07 -1.20168 -88.10210 33738 ft 447 kts 278°
2026-04-29 12:07 -1.19578 -88.13260 33884 ft 448 kts 278°
2026-04-29 12:07 -1.18993 -88.16325 33888 ft 450 kts 278°
2026-04-29 12:08 -1.17817 -88.22472 33888 ft 450 kts 278°
2026-04-29 12:08 -1.16627 -88.28614 33888 ft 450 kts 278°
2026-04-29 12:09 -1.15419 -88.34762 33888 ft 450 kts 278°
2026-04-29 12:09 -1.14224 -88.40905 33889 ft 451 kts 278°
2026-04-29 12:10 -1.13628 -88.43992 33719 ft 453 kts 278°
2026-04-29 12:10 -1.13027 -88.47084 33463 ft 454 kts 278°
2026-04-29 12:10 -1.12421 -88.50194 33210 ft 455 kts 278°
2026-04-29 12:10 -1.11812 -88.53304 32956 ft 457 kts 278°
2026-04-29 12:11 -1.11202 -88.56422 32710 ft 458 kts 278°
2026-04-29 12:11 -1.10590 -88.59556 32463 ft 460 kts 278°
2026-04-29 12:11 -1.09370 -88.65838 32643 ft 460 kts 278°
2026-04-29 12:12 -1.08757 -88.68978 32827 ft 461 kts 278°
2026-04-29 12:12 -1.08143 -88.72120 32885 ft 460 kts 278°
2026-04-29 12:12 -1.07528 -88.75260 32657 ft 460 kts 278°
2026-04-29 12:12 -1.06919 -88.78358 32416 ft 461 kts 278°
2026-04-29 12:13 -1.06294 -88.81547 32169 ft 462 kts 278°
2026-04-29 12:13 -1.05687 -88.84663 31930 ft 464 kts 278°
2026-04-29 12:13 -1.05065 -88.87876 31688 ft 465 kts 278°
2026-04-29 12:13 -1.04448 -88.91054 31451 ft 467 kts 278°
2026-04-29 12:14 -1.03826 -88.94246 31209 ft 468 kts 278°
2026-04-29 12:14 -1.03202 -88.97442 30982 ft 470 kts 278°
2026-04-29 12:14 -1.02573 -89.00653 30560 ft 473 kts 278°
2026-04-29 12:14 -1.01940 -89.03886 29991 ft 475 kts 277°
2026-04-29 12:15 -1.01313 -89.07092 29348 ft 478 kts 278°
2026-04-29 12:15 -1.00675 -89.10360 28698 ft 480 kts 278°
2026-04-29 12:15 -1.00034 -89.13642 28064 ft 482 kts 278°
2026-04-29 12:15 -0.99389 -89.16941 27435 ft 484 kts 278°
2026-04-29 12:16 -0.98745 -89.20245 26838 ft 483 kts 279°
2026-04-29 12:16 -0.98111 -89.23497 26234 ft 468 kts 279°
2026-04-29 12:16 -0.97499 -89.26619 25650 ft 446 kts 279°
2026-04-29 12:16 -0.96914 -89.29601 25081 ft 428 kts 279°
2026-04-29 12:17 -0.96351 -89.32470 24524 ft 413 kts 279°
2026-04-29 12:17 -0.95807 -89.35246 23978 ft 401 kts 280°
2026-04-29 12:17 -0.95281 -89.37936 23435 ft 389 kts 280°
2026-04-29 12:17 -0.94772 -89.40556 22795 ft 379 kts 281°
2026-04-29 12:18 -0.94280 -89.43094 22354 ft 365 kts 281°
2026-04-29 12:18 -0.93805 -89.45531 21976 ft 350 kts 281°
2026-04-29 12:18 -0.93345 -89.47889 21607 ft 342 kts 281°
2026-04-29 12:18 -0.92901 -89.50169 21246 ft 337 kts 281°
2026-04-29 12:19 -0.92451 -89.52471 20879 ft 336 kts 281°
2026-04-29 12:19 -0.92006 -89.54758 20525 ft 335 kts 281°
2026-04-29 12:19 -0.91559 -89.57038 20176 ft 333 kts 281°
2026-04-29 12:19 -0.91115 -89.59299 19826 ft 332 kts 282°
2026-04-29 12:20 -0.90671 -89.61559 19483 ft 331 kts 282°
2026-04-29 12:20 -0.89998 -89.63741 19142 ft 328 kts 296°
2026-04-29 12:20 -0.88757 -89.65630 18804 ft 324 kts 315°
2026-04-29 12:20 -0.86965 -89.66955 18472 ft 319 kts 338°
2026-04-29 12:21 -0.84854 -89.67518 18145 ft 313 kts 359°
2026-04-29 12:21 -0.82719 -89.67306 17765 ft 307 kts 19°
2026-04-29 12:21 -0.80808 -89.66409 17379 ft 303 kts 37°
2026-04-29 12:21 -0.79308 -89.64947 17002 ft 300 kts 56°
2026-04-29 12:22 -0.78379 -89.63096 16631 ft 299 kts 74°
2026-04-29 12:22 -0.78097 -89.61052 16266 ft 298 kts 90°
2026-04-29 12:22 -0.78196 -89.58980 15906 ft 299 kts 94°
2026-04-29 12:22 -0.78404 -89.56913 15549 ft 299 kts 96°
2026-04-29 12:23 -0.78655 -89.54846 15197 ft 299 kts 96°
2026-04-29 12:23 -0.78912 -89.52809 14849 ft 300 kts 96°
2026-04-29 12:23 -0.79204 -89.50749 14501 ft 300 kts 102°
2026-04-29 12:23 -0.79999 -89.48822 14158 ft 302 kts 121°
2026-04-29 12:24 -0.81386 -89.47243 13816 ft 305 kts 139°
2026-04-29 12:24 -0.83213 -89.46200 13452 ft 302 kts 158°
2026-04-29 12:24 -0.85255 -89.45822 13068 ft 298 kts 178°
2026-04-29 12:24 -0.87294 -89.46127 12696 ft 298 kts 197°
2026-04-29 12:25 -0.89124 -89.47077 12325 ft 297 kts 217°
2026-04-29 12:25 -0.90544 -89.48561 11958 ft 295 kts 236°
2026-04-29 12:25 -0.91632 -89.52433 11238 ft 294 kts 271°
2026-04-29 12:26 -0.91522 -89.54472 10887 ft 294 kts 276°
2026-04-29 12:26 -0.91310 -89.56510 10538 ft 295 kts 277°
2026-04-29 12:26 -0.91060 -89.58545 10190 ft 294 kts 278°
2026-04-29 12:26 -0.90803 -89.60572 9848 ft 294 kts 277°
2026-04-29 12:27 -0.90503 -89.62589 9477 ft 293 kts 287°
2026-04-29 12:27 -0.89618 -89.64394 9095 ft 289 kts 310°
2026-04-29 12:27 -0.88134 -89.65684 8723 ft 278 kts 334°
2026-04-29 12:27 -0.86346 -89.66286 8351 ft 268 kts 357°
2026-04-29 12:28 -0.84517 -89.66188 7991 ft 261 kts 18°
2026-04-29 12:28 -0.82894 -89.65443 7882 ft 257 kts 38°
2026-04-29 12:28 -0.81632 -89.64195 7804 ft 253 kts 57°
2026-04-29 12:28 -0.80890 -89.62635 7346 ft 249 kts 77°
2026-04-29 12:29 -0.80742 -89.60928 6957 ft 246 kts 93°
2026-04-29 12:29 -0.80868 -89.59213 6879 ft 248 kts 96°
2026-04-29 12:29 -0.81064 -89.57518 6882 ft 248 kts 98°
2026-04-29 12:29 -0.81441 -89.55832 6883 ft 250 kts 110°
2026-04-29 12:30 -0.82419 -89.54415 6880 ft 253 kts 140°
2026-04-29 12:30 -0.83993 -89.53635 6890 ft 257 kts 166°
2026-04-29 12:30 -0.85788 -89.53628 6885 ft 269 kts 193°
2026-04-29 12:30 -0.87499 -89.54515 6887 ft 287 kts 221°
2026-04-29 12:31 -0.88592 -89.56175 6891 ft 292 kts 252°
2026-04-29 12:31 -0.88720 -89.58186 6887 ft 294 kts 283°
2026-04-29 12:31 -0.87873 -89.60023 6892 ft 292 kts 304°
2026-04-29 12:31 -0.86764 -89.61721 6886 ft 292 kts 304°
2026-04-29 12:32 -0.85669 -89.63434 6884 ft 292 kts 303°
2026-04-29 12:32 -0.84578 -89.65159 6889 ft 295 kts 303°
2026-04-29 12:32 -0.83481 -89.66900 6888 ft 296 kts 303°
2026-04-29 12:32 -0.82384 -89.68641 6882 ft 296 kts 303°
2026-04-29 12:33 -0.81284 -89.70384 6888 ft 296 kts 303°
2026-04-29 12:33 -0.80182 -89.72124 6890 ft 296 kts 303°
2026-04-29 12:33 -0.79081 -89.73861 6884 ft 296 kts 303°
2026-04-29 12:33 -0.77981 -89.75597 6887 ft 296 kts 303°
2026-04-29 12:34 -0.76878 -89.77337 6883 ft 296 kts 303°
2026-04-29 12:34 -0.75778 -89.79075 6886 ft 295 kts 303°
2026-04-29 12:34 -0.74681 -89.80808 6882 ft 295 kts 303°
2026-04-29 12:34 -0.73597 -89.82515 6884 ft 294 kts 303°
2026-04-29 12:35 -0.72498 -89.84247 6891 ft 295 kts 303°
2026-04-29 12:35 -0.71399 -89.85978 6882 ft 294 kts 303°
2026-04-29 12:35 -0.70306 -89.87700 6887 ft 292 kts 303°
2026-04-29 12:35 -0.69215 -89.89418 6886 ft 293 kts 303°
2026-04-29 12:36 -0.68121 -89.91142 6881 ft 294 kts 303°
2026-04-29 12:36 -0.67026 -89.92870 6888 ft 294 kts 303°
2026-04-29 12:36 -0.65937 -89.94588 6885 ft 292 kts 303°
2026-04-29 12:36 -0.64853 -89.96299 6881 ft 291 kts 303°
2026-04-29 12:37 -0.63768 -89.98013 6888 ft 292 kts 303°
2026-04-29 12:37 -0.62681 -89.99729 6889 ft 292 kts 303°
2026-04-29 12:37 -0.61594 -90.01444 6890 ft 292 kts 303°
2026-04-29 12:37 -0.60503 -90.03166 6862 ft 295 kts 304°
2026-04-29 12:38 -0.59418 -90.04876 6742 ft 296 kts 304°
2026-04-29 12:38 -0.58318 -90.06611 6631 ft 295 kts 303°
2026-04-29 12:38 -0.57225 -90.08337 6508 ft 294 kts 303°
2026-04-29 12:38 -0.56130 -90.10064 6396 ft 294 kts 304°
2026-04-29 12:39 -0.55034 -90.11788 6279 ft 293 kts 303°
2026-04-29 12:39 -0.53948 -90.13500 6158 ft 290 kts 303°
2026-04-29 12:39 -0.52874 -90.15194 6038 ft 288 kts 303°
2026-04-29 12:39 -0.51803 -90.16880 5903 ft 287 kts 303°
2026-04-29 12:40 -0.50732 -90.18564 5789 ft 286 kts 303°
2026-04-29 12:40 -0.49683 -90.20214 5675 ft 275 kts 303°
2026-04-29 12:40 -0.48681 -90.21790 5537 ft 262 kts 303°
2026-04-29 12:40 -0.47718 -90.23307 5421 ft 258 kts 303°
2026-04-29 12:41 -0.46758 -90.24824 5299 ft 257 kts 303°
2026-04-29 12:41 -0.45852 -90.26355 5179 ft 255 kts 296°
2026-04-29 12:41 -0.45071 -90.27937 5058 ft 253 kts 296°
2026-04-29 12:41 -0.44292 -90.29512 4939 ft 253 kts 296°
2026-04-29 12:42 -0.43513 -90.31084 4819 ft 252 kts 296°
2026-04-29 12:42 -0.42734 -90.32658 4488 ft 253 kts 296°
2026-04-29 12:42 -0.41987 -90.34168 4381 ft 240 kts 296°
2026-04-29 12:42 -0.41248 -90.35660 4315 ft 240 kts 296°
2026-04-29 12:43 -0.40508 -90.37150 4074 ft 239 kts 296°
2026-04-29 12:43 -0.39773 -90.38632 3829 ft 237 kts 295°
2026-04-29 12:43 -0.39061 -90.40071 3616 ft 227 kts 295°
2026-04-29 12:43 -0.38362 -90.41478 3422 ft 225 kts 296°
2026-04-29 12:44 -0.37376 -90.42657 3217 ft 223 kts 332°
2026-04-29 12:44 -0.35900 -90.43103 3022 ft 223 kts 357°
2026-04-29 12:44 -0.34364 -90.42985 2781 ft 221 kts 17°
2026-04-29 12:44 -0.32974 -90.42387 2539 ft 217 kts 37°
2026-04-29 12:45 -0.32214 -90.41744 2378 ft 215 kts 51°
2026-04-29 12:45 -0.31425 -90.40501 2130 ft 210 kts 73°
2026-04-29 12:45 -0.31139 -90.39096 1995 ft 206 kts 92°
2026-04-29 12:45 -0.31352 -90.37704 1971 ft 200 kts 113°
2026-04-29 12:46 -0.31967 -90.36541 1997 ft 183 kts 130°
2026-04-29 12:46 -0.32860 -90.35682 1976 ft 176 kts 146°
2026-04-29 12:46 -0.33849 -90.34966 1972 ft 175 kts 146°
2026-04-29 12:46 -0.34830 -90.34253 1972 ft 173 kts 146°
2026-04-29 12:47 -0.35803 -90.33546 1970 ft 172 kts 146°
2026-04-29 12:47 -0.36776 -90.32839 1886 ft 173 kts 145°
2026-04-29 12:47 -0.37747 -90.32133 1708 ft 169 kts 145°
2026-04-29 12:47 -0.38649 -90.31478 1514 ft 151 kts 145°
2026-04-29 12:48 -0.39454 -90.30893 1338 ft 138 kts 145°
2026-04-29 12:48 -0.40217 -90.30339 1161 ft 134 kts 146°
2026-04-29 12:48 -0.40965 -90.29796 976 ft 132 kts 145°
2026-04-29 12:48 -0.41702 -90.29250 829 ft 131 kts 145°
2026-04-29 12:49 -0.42442 -90.28712 662 ft 132 kts 146°
2026-04-29 12:49 -0.43195 -90.28168 478 ft 137 kts 147°
2026-04-29 12:49 -0.43948 -90.27618 307 ft 135 kts 147°
2026-04-29 12:49 -0.44702 -90.27077 177 ft 132 kts 145°
2026-04-29 12:50 -0.45312 -90.26635 178 ft 69 kts 143°
2026-04-29 12:50 -0.45450 -90.26522 188 ft 8 kts 139°
2026-04-29 12:50 -0.45456 -90.26536 186 ft 4 kts 308°
2026-04-29 12:50 -0.45375 -90.26592 179 ft 18 kts 325°
2026-04-29 12:51 -0.45265 -90.26670 178 ft 24 kts 324°
2026-04-29 12:51 -0.45112 -90.26780 175 ft 28 kts 324°
2026-04-29 12:51 -0.44951 -90.26896 172 ft 25 kts 324°
2026-04-29 12:51 -0.44811 -90.26997 166 ft 25 kts 324°
2026-04-29 12:52 -0.44703 -90.27074 162 ft 12 kts 328°
2026-04-29 12:52 -0.44640 -90.27036 160 ft 11 kts 55°
2026-04-29 12:52 -0.44593 -90.26998 161 ft 8 kts
2026-04-29 12:52 -0.44577 -90.27005 160 ft 0 kts 326°
2026-04-29 12:53 -0.44577 -90.27010 160 ft 3 kts 285°
2026-04-29 12:53 -0.44587 -90.27024 160 ft 1 kts 192°
2026-04-29 12:53 -0.44590 -90.27021 160 ft 0 kts 156°
2026-04-29 12:54 -0.44598 -90.27017 160 ft 2 kts 149°
2026-04-29 12:54 -0.44599 -90.27016 160 ft 0 kts 146°